Wind_Speed
42 42 41 41 42 43 44 44 45 46 47 47 48 49 50 50 51 52 52 52 52 52 52 52 52 52 52 52 52 52 51 51 51 51 51 51 50 49
43 44 44 44 44 44 45 46 47 48 49 50 50 50 51 52 53 52 52 52 52 52 52 51 51 51 51 51 51 51 51 51 51 51 51 50 49 49
45 45 45 46 47 47 48 48 48 49 49 50 51 52 52 52 53 53 53 53 53 52 52 52 52 51 51 51 51 51 50 50 50 50 50 49 49 49
46 46 47 47 48 49 49 49 50 50 50 50 50 51 52 52 52 52 52 52 51 52 52 52 51 51 50 50 50 50 49 49 49 49 49 48 48 48
47 47 48 48 48 49 49 50 50 50 51 51 51 52 52 53 53 53 53 52 52 51 51 51 51 50 50 49 49 48 48 48 48 48 48 48 48 48
48 48 49 49 49 49 50 50 50 51 51 51 52 52 53 53 53 53 53 53 52 52 52 52 51 50 50 49 49 48 48 48 48 47 47 47 48 48
48 49 49 50 49 50 50 50 50 51 51 51 52 53 53 54 54 54 53 53 52 52 52 52 51 51 51 50 49 49 48 48 48 47 47 47 47 48
49 49 49 50 50 50 51 51 51 52 52 52 53 53 53 53 53 53 53 53 52 51 51 51 51 51 51 50 50 49 49 48 48 47 47 47 47 47
50 50 50 50 50 51 51 52 52 52 53 53 53 53 53 53 53 53 53 53 52 52 51 51 51 51 50 50 50 49 48 48 48 47 47 47 47 47
50 50 50 50 51 52 52 53 53 53 54 54 54 54 54 54 53 53 52 52 52 52 51 50 50 50 50 50 49 49 48 48 47 47 47 47 47 47
51 51 51 51 52 53 53 54 54 54 54 54 54 54 54 53 53 53 52 52 52 51 50 49 49 49 49 49 49 48 48 47 47 46 46 46 45 45
50 51 51 52 52 53 53 54 54 54 54 54 53 53 53 53 53 53 52 52 51 50 49 49 48 48 47 47 48 47 47 46 46 45 44 44 44 43
50 51 51 51 52 53 53 53 53 53 54 53 53 53 53 52 53 53 52 51 51 49 49 48 47 47 47 46 46 46 46 45 45 44 43 43 43 42
50 50 51 51 51 52 52 52 52 53 52 52 52 52 52 52 52 52 51 50 49 48 47 47 46 46 45 45 44 44 45 44 43 42 42 42 41 41
51 50 51 51 51 51 51 51 51 51 50 50 50 50 50 50 50 50 49 48 48 47 46 46 45 45 45 44 43 43 43 42 42 41 41 41 40 40
51 51 51 51 51 51 51 50 50 50 49 49 48 48 48 48 48 48 47 47 46 45 45 45 44 44 43 43 42 42 41 40 40 40 39 39 39 38
50 50 50 50 50 50 50 49 48 48 47 47 47 47 47 47 47 46 45 45 44 43 42 43 42 42 41 41 40 40 39 38 38 38 37 36 36 36
49 49 49 49 49 48 48 47 47 46 46 47 47 47 46 46 45 44 43 42 41 40 40 41 41 41 40 39 38 37 36 36 35 35 34 34 33 33
48 48 48 47 47 47 46 46 46 47 47 46 46 45 45 44 43 42 41 40 39 39 38 39 39 38 38 37 36 35 34 33 33 32 32 31 30 30
47 47 46 46 46 45 45 46 46 46 45 45 44 43 43 42 41 40 39 38 38 37 37 36 36 36 35 34 33 32 32 31 30 30 30 30 29 28
45 45 45 44 44 44 44 44 44 43 42 42 41 41 41 40 39 37 37 36 36 35 34 34 34 33 32 31 29 29 29 28 28 28 28 27 26 26
43 43 43 43 43 43 42 42 41 41 40 40 39 38 38 36 35 34 34 33 33 32 32 31 31 29 28 28 27 26 26 26 27 27 26 25 24 23
41 40 40 40 41 40 40 39 38 38 38 37 36 35 34 33 33 32 31 30 30 29 29 28 27 26 26 25 25 25 25 25 25 25 24 23 23 23
Wind_Direction
276 277 278 279 279 280 280 280 280 280 281 283 284 286 287 288 289 289 289 288 287 287 286 286 285 285 285 284 284 284 283 283 282 282 281 280 279 278
276 277 277 278 279 280 281 281 282 282 282 283 284 285 287 288 289 289 289 289 288 287 287 286 286 286 286 285 284 284 283 283 283 282 281 280 278 278
277 278 279 279 279 280 281 283 284 284 284 285 285 286 287 288 289 289 290 290 289 288 287 287 287 287 287 286 285 284 283 282 281 280 280 279 278 277
277 278 280 281 281 281 282 283 284 285 285 286 286 287 288 288 289 290 290 290 290 289 288 288 287 287 286 286 285 284 284 283 282 281 281 279 278 278
278 280 281 281 281 281 282 283 284 285 286 286 287 287 288 289 289 290 290 290 290 289 289 288 287 287 286 285 285 285 284 283 283 283 281 280 279 278
279 279 281 281 281 282 282 283 284 285 286 286 287 288 289 289 289 289 290 290 289 289 289 288 287 287 286 285 285 285 285 285 284 284 282 280 279 278
278 280 280 281 281 281 282 283 284 285 286 286 287 288 289 289 289 289 289 289 289 289 289 288 287 287 286 285 285 285 285 285 284 283 282 281 279 278
278 279 280 280 281 281 282 283 284 285 285 286 287 288 288 288 288 288 288 288 288 288 288 287 287 286 285 285 284 285 285 284 283 282 281 280 279 278
277 278 279 280 281 282 283 283 284 284 285 286 287 288 288 287 287 287 287 287 287 287 287 287 286 286 286 285 285 285 284 284 283 283 282 280 279 278
278 279 279 280 281 282 282 283 283 284 285 285 286 286 286 286 286 286 287 287 286 287 286 286 285 286 286 286 285 285 284 284 284 283 282 281 280 279
279 279 279 280 281 281 282 283 284 284 284 285 285 286 286 286 286 286 287 287 287 286 286 286 285 285 285 286 285 285 284 284 284 283 282 282 281 279
279 279 280 280 281 282 283 283 284 284 284 284 284 285 285 286 286 287 287 286 286 285 285 285 285 284 285 285 285 285 285 284 284 284 283 282 282 281
279 279 280 281 282 283 283 284 284 284 284 284 284 285 285 285 286 287 287 286 286 285 284 284 284 284 285 285 284 285 285 285 285 284 283 283 282 281
280 280 281 282 283 284 285 285 285 285 285 285 285 285 285 285 286 287 286 286 286 285 284 283 283 283 285 285 284 284 285 285 284 284 283 283 283 282
280 281 282 283 283 284 285 286 286 285 285 285 286 286 286 286 287 288 287 286 286 285 284 284 284 284 285 284 284 284 284 284 284 283 283 282 282 283
280 281 282 283 284 285 285 286 286 285 285 285 285 286 286 287 288 288 287 286 285 284 284 284 284 284 285 284 284 284 283 282 282 283 283 283 283 282
281 282 283 284 284 284 285 285 285 285 285 285 286 286 286 287 288 288 287 286 285 283 283 283 284 284 285 284 284 284 284 283 282 282 283 283 284 283
281 283 283 284 284 284 284 284 284 285 285 285 286 286 287 287 287 286 286 285 285 283 283 284 284 285 285 284 284 284 283 283 283 283 284 284 284 283
282 283 283 284 284 284 284 284 285 285 285 285 286 286 286 286 286 285 285 285 284 283 283 285 284 284 284 284 284 283 282 282 282 283 285 285 284 284
282 283 283 284 284 284 284 285 286 286 286 285 286 286 287 286 286 285 284 284 284 284 283 284 284 284 284 284 283 282 281 281 282 283 284 285 285 284
282 283 283 284 284 285 285 285 286 286 286 285 286 286 286 286 285 285 284 283 284 284 282 282 284 284 284 283 282 281 282 282 283 284 284 283 283 283
283 283 283 283 283 284 284 285 285 285 285 285 286 286 286 285 285 284 283 283 282 282 282 282 284 284 283 282 282 281 282 283 285 286 285 283 282 282
283 283 283 283 284 284 284 285 285 285 285 285 285 286 285 284 284 283 283 282 282 282 282 283 283 283 283 283 282 282 283 284 284 286 285 285 285 285
Height
5718 5717 5715 5714 5712 5710 5709 5707 5705 5703 5701 5697 5694 5691 5687 5684 5681 5677 5674 5670 5666 5663 5659 5656 5653 5650 5647 5644 5642 5639 5637 5635 5633 5631 5629 5628 5626 5625
5707 5705 5704 5702 5700 5698 5697 5694 5692 5690 5688 5685 5681 5678 5674 5671 5667 5664 5660 5656 5653 5649 5645 5642 5639 5636 5633 5630 5628 5625 5623 5621 5618 5617 5615 5613 5611 5610
5695 5694 5692 5690 5688 5686 5684 5682 5679 5677 5675 5672 5668 5665 5661 5658 5654 5650 5646 5643 5639 5635 5632 5629 5625 5622 5619 5616 5614 5611 5609 5607 5604 5602 5600 5599 5597 5596
5683 5682 5680 5678 5676 5673 5671 5668 5666 5663 5661 5659 5655 5651 5648 5644 5640 5636 5632 5629 5625 5621 5618 5614 5611 5608 5605 5602 5600 5597 5595 5593 5590 5588 5586 5585 5583 5581
5671 5669 5667 5665 5663 5660 5658 5655 5653 5650 5647 5645 5642 5638 5634 5630 5627 5623 5618 5615 5611 5607 5604 5600 5597 5594 5591 5589 5586 5584 5581 5579 5577 5574 5572 5570 5569 5567
5658 5656 5654 5652 5649 5647 5644 5642 5639 5636 5634 5631 5628 5624 5621 5616 5613 5609 5605 5601 5597 5593 5590 5586 5583 5580 5578 5575 5573 5570 5568 5565 5563 5560 5558 5556 5555 5553
5645 5643 5640 5638 5636 5633 5631 5628 5626 5623 5620 5617 5614 5610 5606 5602 5599 5595 5591 5587 5583 5579 5576 5572 5569 5567 5564 5561 5559 5556 5554 5551 5549 5546 5544 5542 5540 5538
5631 5629 5627 5625 5622 5620 5617 5614 5612 5609 5606 5603 5599 5596 5592 5588 5584 5580 5577 5574 5570 5567 5562 5558 5555 5552 5549 5547 5545 5542 5540 5537 5535 5532 5530 5528 5526 5524
5617 5615 5613 5611 5608 5606 5603 5601 5598 5594 5591 5588 5585 5581 5577 5573 5570 5566 5562 5558 5555 5552 5548 5545 5541 5538 5535 5533 5530 5528 5526 5523 5521 5518 5516 5514 5512 5510
5603 5601 5599 5596 5594 5591 5589 5586 5583 5579 5576 5573 5570 5566 5562 5558 5554 5551 5547 5544 5540 5537 5534 5532 5528 5524 5521 5518 5516 5514 5512 5509 5506 5504 5502 5500 5498 5495
5588 5586 5584 5582 5579 5576 5574 5571 5568 5564 5560 5557 5554 5550 5546 5542 5539 5536 5532 5529 5527 5523 5520 5517 5515 5512 5508 5505 5502 5500 5497 5495 5493 5490 5487 5485 5483 5481
5574 5572 5569 5567 5564 5561 5558 5556 5553 5549 5545 5542 5539 5535 5531 5528 5524 5521 5518 5515 5512 5509 5506 5503 5501 5498 5496 5493 5489 5486 5484 5481 5479 5476 5474 5471 5469 5467
5560 5557 5554 5552 5549 5546 5543 5540 5537 5534 5530 5527 5524 5520 5517 5513 5510 5506 5503 5500 5497 5494 5492 5490 5487 5484 5482 5481 5477 5473 5470 5468 5465 5463 5460 5458 5456 5454
5545 5542 5539 5537 5534 5531 5528 5525 5521 5518 5515 5512 5509 5506 5502 5499 5496 5492 5489 5485 5483 5480 5478 5475 5474 5471 5469 5467 5464 5461 5457 5455 5453 5450 5448 5446 5443 5441
5529 5527 5524 5522 5519 5516 5513 5509 5506 5503 5500 5498 5495 5491 5488 5485 5481 5478 5474 5471 5469 5466 5464 5462 5460 5458 5455 5453 5451 5449 5446 5443 5440 5438 5436 5433 5431 5429
5514 5512 5509 5507 5504 5501 5498 5494 5491 5488 5486 5483 5480 5477 5474 5471 5467 5464 5461 5458 5455 5453 5450 5448 5446 5444 5442 5440 5438 5436 5433 5431 5429 5426 5424 5422 5419 5417
5499 5497 5494 5491 5489 5486 5483 5480 5477 5474 5471 5469 5466 5463 5460 5457 5454 5451 5447 5445 5443 5441 5438 5436 5433 5431 5430 5428 5426 5423 5420 5418 5416 5415 5413 5410 5408 5405
5483 5482 5479 5476 5474 5471 5468 5466 5463 5460 5457 5455 5452 5449 5446 5443 5440 5437 5434 5432 5430 5428 5426 5424 5421 5419 5418 5416 5414 5411 5409 5407 5405 5403 5402 5400 5398 5395
5468 5466 5464 5461 5459 5456 5454 5452 5449 5447 5444 5441 5438 5435 5432 5430 5427 5425 5422 5420 5418 5416 5414 5412 5410 5408 5406 5404 5402 5400 5399 5397 5395 5393 5391 5389 5388 5385
5453 5451 5449 5447 5445 5442 5440 5438 5435 5433 5430 5427 5424 5422 5419 5417 5414 5412 5410 5408 5407 5405 5403 5401 5399 5397 5395 5394 5392 5390 5388 5387 5386 5384 5382 5380 5378 5376
5439 5437 5435 5433 5431 5428 5426 5424 5421 5419 5416 5414 5411 5409 5406 5404 5402 5400 5399 5397 5396 5394 5393 5391 5389 5387 5385 5384 5383 5381 5379 5378 5376 5375 5373 5372 5370 5368
5425 5423 5421 5419 5417 5415 5413 5411 5408 5406 5404 5401 5399 5397 5395 5393 5391 5389 5388 5386 5385 5384 5383 5381 5380 5378 5376 5375 5374 5372 5371 5369 5367 5366 5364 5363 5361 5360
5412 5410 5408 5406 5404 5402 5400 5398 5396 5394 5392 5390 5388 5386 5384 5382 5381 5379 5378 5377 5376 5375 5374 5372 5371 5370 5368 5367 5366 5364 5363 5362 5360 5358 5356 5354 5353 5351